Regional Weather Roundup
Issued by NWS

Home | Current Version | Previous Version | Graphics & Text | Print | Product List | Glossary On
Versions: 1 2 3 4 5 6 7 8 9 10 11 12 13 14 15 16 17 18 19 20 21 22 23 24 25 26 27 28 29 30 31 32 33 34 35 36 37 38 39 40 41 42 43 44 45 46 47 48 49 50
000
ASUS43 KDMX 211106
RWRIA

WEATHER ROUNDUP FOR IOWA
NATIONAL WEATHER SERVICE DES MOINES IA
500 AM CST SUN JAN 21 2018

NOTE: "FAIR" INDICATES FEW OR NO CLOUDS BELOW 12,000 FEET WITH NO
SIGNIFICANT WEATHER AND/OR OBSTRUCTIONS TO VISIBILITY.

* - THESE STATIONS ARE NOT NWS STATIONS...THUS NOT UNDER NWS
QUALITY CONTROL.  THEY ALSO DO NOT REPORT WEATHER SUCH
AS PRECIPITATION OR FOG.

IAZ001>003-012>014-020>022-031>034-043>046-211200-
   NORTHWEST IOWA

CITY           SKY/WX    TMP DP  RH WIND       PRES   REMARKS
CARROLL *      CLOUDY    34  34 100 N3        29.87F FOG
CHEROKEE *     CLOUDY    30  30 100 N7        29.89S WCI  24
DENISON *      CLOUDY    36  36 100 NE7       29.87F FOG     WCI  30
LE MARS *      CLOUDY    28  27  93 NE9       29.89S WCI  20
ORANGE CITY *  PTCLDY    30  28  93 NE7       29.89S WCI  23
SHELDON *      CLOUDY    30  28  93 NE9       29.89S WCI  22
SIOUX CITY     CLOUDY    31  29  92 N8        29.88F WCI  23
SPENCER        CLOUDY    33  28  81 NE14      29.90F WCI  23
STORM LAKE *   CLOUDY    30  30 100 NE13      29.87S WCI  20
$$

IAZ055>058-069>071-079>083-090>094-211200-
   SOUTHWEST IOWA

CITY           SKY/WX    TMP DP  RH WIND       PRES   REMARKS
ATLANTIC *     CLOUDY    37  37 100 NE6       29.84F WCI  33
AUDUBON *      CLOUDY    37  34  87 CALM      29.86F FOG
CLARINDA *     CLOUDY    41  41 100 N5          N/A
COUNCIL BLFS * CLOUDY    39  39 100 NE9       29.82S FOG     WCI  33
CRESTON *      CLOUDY    39  39 100 E8        29.84F FOG     WCI  34
HARLAN  *      CLOUDY    39  39 100 N7        29.87F WCI  34
LAMONI         CLOUDY    43  40  89 SE5       29.83S
RED OAK *      CLOUDY    41  39  93 NE8       29.82S
SHENANDOAH *   CLOUDY    41  39  93 NE8       29.81F FOG
$$

IAZ047>049-059>061-072>074-084-211200-
   CENTRAL IOWA

CITY           SKY/WX    TMP DP  RH WIND       PRES   REMARKS
AMES           CLOUDY    37  36  96 NE5       29.89S FOG     WCI  33
ANKENY *       MIX PCPN  37  36  93 NE5       29.89R WCI  34
BOONE *        CLOUDY    36  36 100 NE6       29.87S FOG     WCI  31
CHARITON *     CLOUDY    41  39  93 E6        29.85S
DES MOINES     DRIZZLE   39  37  92 NE8       29.87S FOG     WCI  33
GRINNELL*      CLOUDY    37  36  96 E7        29.89F FOG     WCI  31
KNOXVILLE *    CLOUDY    39  37  93 CALM      29.85S FOG
MARSHALLTOWN   CLOUDY    36  35  96 E6        29.89S FOG     WCI  31
NEWTON *       CLOUDY    37  37 100 NE8       29.88S FOG     WCI  31
PELLA *        CLOUDY    40  39  93 E5        29.88S
PERRY *        CLOUDY    37  37  97 N6        29.87S FOG     WCI  33
$$

IAZ004>006-015-016-023>025-035-036-211200-
   NORTH CENTRAL IOWA

CITY           SKY/WX    TMP DP  RH WIND       PRES   REMARKS
ALGONA *       CLOUDY    30 N/A N/A N7        29.90S WCI  23
CLARION *      CLOUDY    30  30 100 E7        29.90S FOG     WCI  23
ESTHERVILLE    CLOUDY    27  26  96 N9        29.91S WCI  18
FORT DODGE *   CLOUDY    31  31 100 N5        29.89F FOG     WCI  26
MASON CITY     CLOUDY    24  21  88 N6        29.91S FOG     WCI  17
FOREST CITY *    N/A     32  32 100 NE5       29.91R WCI  27
WEBSTER CITY * CLOUDY    34  34 100 E5        29.87F FOG     WCI  30
IOWA FALLS *   CLOUDY    34  34  97 NE3       29.91S FOG
$$

IAZ007>011-017>019-026>030-037>042-050>054-066-211200-
   NORTHEAST IOWA

CITY           SKY/WX    TMP DP  RH WIND       PRES   REMARKS
CEDAR RAPIDS   CLOUDY    39  36  89 E7        29.90F FOG     WCI  34
CHARLES CITY * FOG       28  30 100 SE6       29.92R VSB<1/4 WCI  22
CLINTON *      CLOUDY    37  35  92 E6        29.94S FOG     WCI  32
DECORAH *      FOG       28  28 100 SE5       29.91R VSB 1/4 WCI  23
DUBUQUE        CLOUDY    38  35  89 CALM      29.92S FOG
MONTICELLO *   CLOUDY    34  34 100 CALM      29.92S FOG
OELWEIN *      CLOUDY    32  32 100 NE5       29.92R FOG     WCI  27
WATERLOO       CLOUDY    31  31 100 CALM      29.92R FOG
$$

IAZ064-065-067-068-078-211200-
   EAST CENTRAL IOWA

CITY           SKY/WX    TMP DP  RH WIND       PRES   REMARKS
DAVENPORT      CLOUDY    41  37  86 E7        29.94F
IOWA CITY      CLOUDY    41  37  86 E3        29.92F
MT. PLEASANT * CLOUDY    39  36  87 SE6       29.90S WCI  35
MUSCATINE *    CLOUDY    41  37  87 CALM      29.92F
QUAD CITIES    CLOUDY    41  37  86 E7        29.92S
$$

IAZ062-063-075>077-085>089-095>099-211200-
   SOUTHEAST IOWA

CITY           SKY/WX    TMP DP  RH WIND       PRES   REMARKS
BURLINGTON     CLOUDY    40  37  89 SE3       29.91R
FAIRFIELD *    CLOUDY    41  39  93 SE7       29.88S
FORT MADISON * CLOUDY    43  39  87 SE6       29.91S
KEOKUK *       CLOUDY    43  39  87 SE5       29.89F
OSKALOOSA *    CLOUDY    39  38  93 E6        29.88S
OTTUMWA        CLOUDY    41  38  89 SE6       29.87S
WASHINGTON *   CLOUDY    39  39 100 E7        29.91S FOG     WCI  34
$$

ABBREVIATIONS USED IN REMARKS
   TC - TEMPERATURES IN CELSIUS
  WCI - WIND CHILL INDEX
   HX - HEAT INDEX
  VSB - VISIBILITY
$$





USA.gov is the U.S. government's official web portal to all federal, state and local government web resources and services.